Lid_Strength_Index
4 5 4 2 2 3 3 2 2 1 1 2 2 3 3 2 3 3 2 2 3 3 4 5 5 4 4 4 5 7 9 11 11 12 13 14 14 15 16 16 16 16 16
5 4 5 3 2 3 3 3 2 2 1 1 1 3 3 3 3 3 3 2 3 4 4 5 5 4 5 5 5 7 9 10 10 12 13 15 14 15 15 16 16 17 16
6 5 6 4 3 3 3 3 3 2 2 1 2 5 5 5 5 4 4 4 4 5 5 6 6 5 5 5 5 6 8 10 10 10 11 14 14 15 15 16 16 17 17
5 5 4 5 4 3 2 3 3 2 2 2 2 3 3 3 3 2 4 5 5 6 6 6 6 6 5 5 6 7 8 9 10 11 9 11 12 14 16 16 16 16 16
5 5 4 4 4 4 3 2 3 3 2 2 2 3 3 2 5 6 5 5 7 6 7 7 7 7 6 5 6 7 8 8 10 10 11 12 13 13 15 17 17 17 16
5 5 4 3 3 4 4 3 3 3 2 2 2 2 3 4 6 5 5 5 7 8 7 7 8 8 7 7 6 6 8 8 10 10 11 12 12 13 15 16 17 17 16
5 5 5 4 4 3 4 4 3 3 2 2 2 2 2 3 4 5 4 5 8 9 8 8 9 10 8 8 7 8 7 9 9 11 11 12 13 14 15 15 16 17 16
5 5 4 4 4 3 3 4 4 3 2 2 2 2 2 2 3 4 4 4 5 6 7 9 9 10 10 10 8 8 9 10 10 11 13 13 14 15 15 15 16 18 17
6 5 4 4 4 3 3 3 3 3 2 2 2 2 2 2 3 4 4 4 5 7 9 9 10 11 11 11 11 10 11 11 12 12 14 14 15 15 16 15 16 16 18
8 5 4 4 3 3 3 3 3 3 3 2 2 2 2 2 3 4 5 5 7 9 10 10 10 11 11 11 12 12 12 13 14 15 15 16 16 16 16 16 16 16 16
10 7 5 4 3 3 3 3 3 3 3 3 2 2 2 2 3 5 5 6 7 8 9 10 11 11 12 12 12 12 14 14 15 16 15 16 17 17 17 16 16 16 15
11 9 8 7 5 4 4 4 4 4 3 3 3 3 2 3 4 5 5 6 7 8 9 10 10 11 11 12 12 13 14 15 15 16 16 17 17 17 17 17 16 16 16
11 10 9 9 8 7 6 5 4 4 4 3 3 3 3 4 4 4 5 6 7 8 9 10 10 11 11 12 12 13 14 15 15 16 17 17 17 17 17 17 17 16 16
13 12 11 11 9 9 8 7 6 5 5 4 3 3 3 4 4 4 5 6 7 8 9 9 10 10 11 12 13 13 14 15 16 16 17 17 17 17 16 17 16 17 17
14 14 14 13 12 11 10 9 8 7 6 5 3 3 3 3 4 5 6 7 7 8 9 10 10 11 12 12 13 14 15 15 16 16 17 17 17 15 15 16 17 16 16
14 14 14 14 14 13 12 10 9 9 7 7 7 7 7 7 7 8 8 9 10 11 12 12 12 12 12 13 14 14 15 16 16 16 17 17 17 14 13 13 13 14 16
14 14 14 14 14 14 13 12 10 10 9 9 9 9 10 11 11 11 12 12 12 12 12 13 13 13 13 13 14 14 16 16 16 16 17 17 16 16 15 13 13 12 12
15 15 15 15 14 15 15 14 11 11 11 11 11 12 12 12 13 13 13 13 13 13 14 14 14 14 15 13 13 15 16 16 16 16 16 16 16 16 16 16 14 14 14
15 15 15 15 15 16 16 15 14 13 13 13 12 13 14 14 14 14 14 15 15 15 15 15 15 16 16 13 13 14 16 15 16 16 16 15 15 14 13 16 15 15 15
16 16 16 15 16 17 17 16 16 16 16 16 15 14 14 14 14 14 15 16 16 16 17 16 16 16 16 13 13 14 15 16 17 17 16 15 15 13 12 15 15 15 15
17 17 17 17 18 18 18 17 17 18 18 17 17 16 16 15 14 15 17 16 16 16 16 16 16 15 15 14 12 13 15 15 16 16 16 16 13 12 12 12 14 14 15
17 18 18 18 19 19 19 18 19 19 19 18 17 16 16 16 16 16 17 16 15 15 16 16 17 17 16 15 12 12 14 14 15 16 16 15 13 11 11 11 12 12 15
18 19 20 19 20 21 20 20 21 20 20 18 17 16 15 16 16 16 16 16 15 15 16 16 16 17 17 16 13 12 13 13 15 15 14 13 12 11 11 11 10 12 16
19 20 21 21 21 22 21 22 21 21 21 18 17 17 18 16 16 15 15 15 15 15 15 16 16 16 17 17 16 14 13 13 14 13 13 12 12 12 12 13 12 13 14
20 22 23 23 23 23 22 22 21 21 18 17 16 16 17 16 15 16 16 16 16 14 14 14 14 15 16 16 15 13 13 13 13 13 13 14 14 14 15 15 14 15 14
22 22 23 23 23 23 22 21 21 21 19 16 15 15 16 15 15 15 16 13 13 12 12 13 13 16 13 13 13 12 11 11 12 14 15 15 14 14 14 14 15 15 16